#timestamp,LO_Frequency,Hit,StdDev 
1503219615.9,286047001.9,N,1.2
1503219635.7,286047011.9,Y,0.0
1503219655.6,286046998.2,P,1.5
1503219675.4,286046998.1,N,1.5
1503219695.2,286047000.6,N,1.4
1503219715.1,286047001.2,N,1.4
1503219716.0,286047001.2,N,1.4
1503219735.8,286046998.4,N,1.4
1503219755.7,286046999.0,N,1.4
1503219775.5,286046997.1,N,1.5
1503219795.3,286046997.7,N,1.5
1503219815.2,286046996.6,N,1.7
1503219835.0,286046997.0,N,1.7
1503219835.9,286046997.0,N,1.7
1503219855.8,286046996.5,N,1.7
1503219875.6,286046996.8,N,1.7
1503219895.4,286046998.1,N,1.7
1503219915.3,286046999.4,N,1.6
1503219935.1,286046999.4,N,1.6
1503219955.8,286046997.0,N,1.6
1503219975.7,286046997.6,N,1.6
1503219995.5,286046995.2,Y,0.0
1503220015.4,286046996.9,P,0.8
1503220035.2,286046997.3,P,0.6
1503220055.0,286046999.4,N,1.0
1503220055.9,286046999.4,N,1.0
1503220075.8,286046999.3,N,1.0
1503220095.6,286046999.3,N,1.0
1503220115.5,286046997.7,N,1.0
1503220135.3,286046997.8,N,0.9
1503220155.1,286046994.9,Y,0.0
1503220175.9,286046999.4,P,0.5
1503220195.7,286046996.5,P,1.2
1503220215.6,286046999.0,N,1.1
1503220235.4,286046997.1,N,1.1
1503220255.2,286046999.2,N,1.1
1503220275.1,286046997.1,N,1.1
1503220276.0,286046997.1,N,1.1
1503220295.8,286046997.7,N,1.0
1503220315.6,286046997.2,N,1.0
1503220335.5,286046997.8,N,0.9
1503220355.3,286046996.8,Y,0.0
1503220375.2,286046996.6,P,0.6
1503220395.0,286046996.5,P,0.6
1503220395.9,286046996.5,P,0.6
1503220415.7,286046997.5,Y,0.0
1503220435.6,286046998.7,P,0.9
1503220455.4,286047000.9,N,1.6
1503220475.3,286047002.2,N,2.0
1503220495.1,286047002.7,N,2.2
1503220515.8,286047001.1,N,2.0
1503220535.7,286047000.7,N,1.9
1503220555.5,286046999.3,N,1.8
1503220575.4,286046999.1,N,1.7
1503220595.2,286046998.5,N,1.7
1503220615.0,286047000.5,N,1.6
1503220615.9,286047000.5,N,1.6
1503220635.8,286047000.4,N,1.5
1503220655.6,286047000.7,N,1.5
1503220675.4,286047000.7,N,1.4
1503220695.3,286046998.1,N,1.5
1503220715.1,286046998.2,N,1.5
1503220735.9,286046999.3,N,1.5
1503220755.7,286046996.6,N,1.6
1503220775.5,286046997.7,N,1.6
1503220795.4,286046994.9,Y,0.0
1503220815.2,286046996.7,P,1.5
1503220835.1,286046997.8,N,1.2
1503220836.0,286046997.8,N,1.1
1503220855.8,286046997.3,N,1.0
1503220875.6,286046995.3,Y,0.0
1503220895.5,286046998.7,P,0.4
1503220915.3,286046998.7,P,0.4
1503220935.2,286046998.8,P,0.4
1503220955.9,286047000.8,N,1.0
1503220975.7,286046998.6,N,0.9
1503220995.6,286047001.2,N,1.2
1503221015.4,286046998.5,N,1.1
1503221035.2,286046998.4,N,1.1
1503221055.1,286046998.8,N,1.0
1503221056.0,286046998.8,N,1.0
1503221075.8,286046999.5,N,0.9
1503221095.7,286046998.5,N,0.9
1503221115.5,286046998.2,N,0.9
1503221135.3,286046999.2,N,0.9
1503221155.2,286046998.8,N,0.9
1503221175.0,286046999.0,N,0.8
1503221175.9,286046999.0,N,0.8
1503221195.8,286046999.3,N,0.8
1503221215.6,286046998.1,N,0.8
1503221235.4,286046998.7,N,0.8
1503221255.3,286046998.7,N,0.8
1503221275.1,286046998.8,N,0.7
1503221295.9,286046999.6,N,0.7
1503221315.7,286046999.1,N,0.7
1503221335.5,286046998.8,N,0.7
1503221355.4,286046999.5,N,0.7
1503221375.2,286046999.0,N,0.7
1503221395.0,286046998.3,N,0.7
1503221395.9,286046998.3,N,0.7
1503221415.8,286046999.4,N,0.7
1503221435.6,286046998.9,N,0.7
1503221455.5,286046998.2,N,0.7
1503221475.3,286046999.5,N,0.7
1503221495.1,286046999.5,N,0.6
1503221515.9,286046999.1,N,0.6
1503221535.7,286046998.7,N,0.4
1503221555.6,286046998.3,Y,0.0
1503221575.4,286047000.8,P,1.0
1503221595.2,286047000.6,N,0.9
1503221615.1,286047000.4,N,0.8
1503221616.0,286047000.4,N,0.7
1503221635.8,286047000.6,N,0.6
1503221655.7,286047000.6,N,0.6
1503221675.5,286047000.6,N,0.6
1503221695.3,286047001.0,N,0.6
1503221715.2,286046998.1,Y,0.0
1503221735.0,286046998.9,P,0.8
1503221735.9,286046998.9,N,0.7
1503221755.8,286046998.2,N,0.8
1503221775.6,286047000.8,N,1.0
1503221795.4,286682704.1,Y,0.0
1503221815.3,286047001.2,P,0.9
1503221835.1,286047000.2,N,0.7
1503221855.9,286047002.4,P,1.1
1503221875.7,286046999.9,N,1.1
1503221895.5,286047002.4,N,1.2
1503221915.4,286047000.3,N,1.1
1503221935.2,286047000.3,N,1.0
1503221955.1,286046999.9,N,1.0
1503221956.0,286046999.9,N,1.0
1503221975.8,286047002.7,N,1.1
1503221995.6,286046999.9,N,1.1
1503222015.5,286046999.7,N,1.1
1503222035.3,286047002.4,N,1.2
1503222055.2,286047001.6,N,1.1
1503222075.9,286047002.2,N,1.1
1503222095.7,286047002.6,N,1.2
1503222115.6,286047002.1,N,1.2
1503222135.4,286047002.2,N,1.2
1503222155.2,286047001.9,N,1.2
1503222175.1,286047002.2,N,1.1
1503222176.0,286047002.2,N,1.1
1503222195.8,286047004.4,Y,0.0
1503222215.7,286047000.0,P,0.6
1503222235.5,286047000.1,N,0.6
1503222255.3,286047000.2,N,0.5
1503222275.2,286047002.1,Y,0.0
1503222295.0,286047002.4,P,1.0
1503222295.9,286047002.4,N,0.9
1503222315.8,286047002.6,N,0.9
1503222335.6,286047002.5,N,0.8
1503222355.4,286047002.0,N,0.8
1503222375.3,286047004.3,Y,0.0
1503222395.1,286047000.4,P,0.8
1503222415.9,286047000.6,N,0.7
1503222435.7,286047000.6,N,0.7
1503222455.5,286047001.1,N,0.6
1503222475.4,286047001.1,N,0.5
1503222495.2,286046998.6,N,1.0
1503222515.1,286047000.3,N,0.9
1503222516.0,286047000.3,N,0.9
1503222535.8,286047000.1,N,0.8
1503222555.6,286046999.8,N,0.8
1503222575.5,286047002.8,Y,0.0
1503222595.3,286047000.4,P,0.0
1503222615.2,286047002.6,P,1.0
1503222635.9,286047002.2,N,1.0
1503222655.7,286047002.2,N,0.9
1503222675.6,286047002.7,N,1.0
1503222695.4,286047002.3,N,0.9
1503222715.2,286047002.2,N,0.9
1503222735.1,286047002.2,N,0.8
1503222736.0,286047002.2,N,0.8
1503222755.8,286047001.5,N,0.8
1503222775.7,286046999.7,N,0.9
1503222795.5,286046999.7,N,1.1
1503222815.3,286047001.7,N,1.0
1503222835.2,286047002.0,N,1.0
1503222855.0,286047002.4,N,1.0
1503222855.9,286047002.4,N,1.0
1503222875.8,286047001.5,N,0.9
1503222895.6,286047001.3,N,0.9
1503222915.4,286047001.3,N,0.9
1503222935.3,286047001.6,N,0.9
1503222955.1,286047001.8,N,0.9
1503222975.9,286047002.0,N,0.8
1503222995.7,286047001.7,N,0.8
1503223015.5,286047003.9,Y,0.0
1503223035.4,286047002.3,P,0.3
1503223055.2,286047002.2,P,0.3
1503223075.1,286047002.1,P,0.2
1503223076.0,286047002.1,Y,0.0
1503223095.8,286046998.5,P,1.8
1503223115.6,286046998.2,N,1.8
1503223135.5,286046998.7,N,1.6
1503223155.3,286047001.1,N,1.6
1503223175.2,286047001.0,N,1.5
1503223195.9,286047001.2,N,1.5
